Location: Jetmore
(38.0845°N, 99.8935°W)
Time: 01:20:07
(UTC+00:00)

X-37B - Visible Passes

Search period start: 27 September 2021 00:00
Search period end: 07 October 2021 00:00
Orbit: 381 x 393 km, 45.0° (Epoch: 29 August)

Date Brightness Start Highest point End Pass type
(mag) Time Alt. Az. Time Alt. Az. Time Alt. Az.
27 Sep 2.3 11:02:46 22° NNW 11:03:18 23° N 11:05:53 10° NE visible
28 Sep 3.9 10:07:03 12° NE 10:07:03 12° NE 10:07:27 10° NE visible
28 Sep 2.4 11:39:20 10° NW 11:41:58 24° N 11:44:37 10° ENE visible
29 Sep 2.6 10:43:38 22° N 10:43:38 22° N 10:45:55 10° NE visible
30 Sep 2.2 11:20:17 18° NW 11:22:00 29° NNE 11:24:49 10° ENE visible
01 Oct 3.3 10:24:41 19° NE 10:24:41 19° NE 10:26:04 10° ENE visible
01 Oct 0.8 11:57:17 10° WNW 12:00:25 68° NNE 12:03:35 10° ESE visible
02 Oct 1.5 11:01:28 37° N 11:01:59 41° NNE 11:05:00 10° E visible
03 Oct 4.1 10:06:03 12° ENE 10:06:03 12° ENE 10:06:18 10° ENE visible
03 Oct 0.6 11:38:21 21° WNW 11:40:16 63° SSW 11:43:23 10° SE visible
04 Oct 2.1 10:43:03 35° E 10:43:03 35° E 10:45:02 10° ESE visible
05 Oct 1.5 11:20:11 31° SSW 11:20:11 31° SSW 11:22:52 10° SSE visible
